Wind_Speed
6 8 8 11 12 12 13 14 15 17 21 26 28 31 32 34 36 38 39 39 40 41 41 40 40 42 43 45 46 46 46 46 47 49 50 51 51 51 50 50 49 48 48 48
6 9 9 12 14 15 16 17 18 20 23 26 29 31 33 35 37 38 39 40 41 42 41 41 42 43 44 45 46 45 46 47 48 49 50 50 49 47 46 45 44 43 42 43
5 9 12 14 15 18 19 20 21 22 24 26 29 32 34 36 38 39 41 41 42 42 42 42 43 44 45 45 45 45 46 47 48 49 48 47 45 43 42 40 39 38 38 38
6 9 14 16 17 19 20 22 22 23 25 27 30 34 37 38 40 42 42 42 43 43 43 43 44 45 45 45 45 45 46 47 48 47 46 43 41 40 38 36 35 34 33 33
8 7 13 19 18 19 21 23 22 23 25 28 30 33 37 40 42 43 43 43 44 44 44 44 45 45 45 45 45 46 47 47 46 45 43 41 39 37 35 33 32 30 29 28
10 10 13 19 19 20 23 24 23 25 27 29 31 33 36 39 41 43 43 44 44 45 45 45 45 45 45 45 46 46 46 46 44 43 42 39 37 35 32 30 29 27 26 25
14 13 17 20 21 22 23 25 26 27 28 30 33 35 38 40 42 44 44 45 45 45 45 45 45 44 44 45 46 46 45 43 42 42 40 37 35 33 30 28 26 25 23 21
16 17 20 21 24 23 23 24 25 27 28 31 33 36 38 41 43 44 45 45 45 46 45 45 45 44 44 44 45 45 44 42 41 40 38 35 33 30 29 27 24 22 20 18
19 21 22 23 24 23 23 24 25 27 29 31 34 37 39 41 43 45 46 46 46 46 45 44 44 44 44 44 44 44 43 41 39 38 36 34 31 29 27 25 23 20 17 15
20 21 22 22 22 22 23 24 26 28 30 32 35 37 40 42 43 45 46 46 46 46 45 44 43 44 44 43 43 43 42 39 37 36 34 32 31 28 27 25 22 19 16 13
21 21 22 22 22 22 24 25 27 28 30 33 35 38 40 42 44 45 46 47 47 46 45 44 43 43 43 42 42 41 40 38 36 35 33 32 30 28 26 24 22 20 15 12
22 22 22 23 23 23 24 26 27 29 31 34 36 39 41 43 45 46 46 47 46 45 44 43 43 42 42 41 40 39 37 36 35 34 33 31 29 27 25 23 22 19 16 12
22 22 23 23 24 24 25 27 28 30 32 35 37 40 42 44 45 46 46 46 46 44 43 43 42 41 40 39 38 36 35 35 34 33 32 30 29 27 25 24 23 20 16 12
22 23 23 24 24 25 26 28 30 32 34 36 39 41 43 44 45 46 45 46 45 44 43 42 41 40 39 38 37 35 34 34 33 32 31 30 29 27 26 25 23 21 18 13
23 23 24 24 25 26 27 29 31 33 35 38 40 42 43 44 45 45 45 45 44 43 42 41 39 38 37 37 35 34 33 32 32 31 30 29 28 28 27 25 24 22 19 16
24 24 25 26 27 28 29 31 33 35 37 39 41 42 43 44 45 45 44 43 42 41 41 39 38 37 36 36 34 33 32 31 31 30 29 28 28 28 27 26 25 23 20 17
26 26 27 28 29 30 31 33 35 36 38 40 41 42 43 43 44 44 43 42 41 41 40 39 37 36 35 34 33 31 30 30 29 29 29 28 27 27 26 26 25 24 22 19
28 28 29 30 31 32 33 35 36 38 39 40 42 42 42 42 42 42 42 41 39 40 39 38 36 35 34 32 31 29 29 28 27 27 27 27 27 26 25 25 25 24 23 21
30 31 31 32 33 34 36 37 38 39 40 41 41 41 42 42 41 41 41 39 38 38 38 37 35 34 32 31 29 27 27 26 26 25 26 26 26 26 25 25 25 24 23 22
33 34 34 35 36 37 37 38 39 40 40 40 41 41 41 41 40 39 40 38 36 36 36 35 34 32 31 29 27 25 24 24 24 23 24 24 24 25 24 24 25 24 24 23
36 36 37 38 38 39 39 39 40 41 41 41 41 41 41 40 39 38 38 37 35 35 34 33 32 31 29 28 25 23 22 21 21 22 22 21 21 22 22 22 23 24 24 24
39 39 40 40 41 41 41 40 40 41 42 42 42 41 40 40 39 38 37 36 34 33 32 31 30 29 28 26 23 21 20 18 18 19 19 19 19 20 20 21 21 22 23 24
42 43 43 43 43 43 43 41 41 42 42 42 42 41 40 39 38 37 36 35 33 32 31 29 28 27 25 24 22 20 18 17 15 16 16 16 17 18 18 19 19 19 20 22
46 46 46 46 46 45 45 45 44 43 43 42 42 41 39 38 38 37 36 34 32 31 29 28 27 25 23 22 20 18 17 15 14 13 13 13 14 15 16 16 17 17 18 18
50 50 50 49 48 47 47 46 46 45 43 42 42 41 39 38 38 37 35 33 31 29 28 27 26 24 22 20 19 17 16 14 12 11 10 10 11 11 12 14 15 15 16 16
54 53 52 51 50 49 48 47 47 46 44 42 41 40 39 38 37 36 34 32 30 28 27 26 25 23 21 19 18 16 15 13 11 9 8 7 8 8 9 10 11 12 13 14
55 54 53 52 51 50 48 48 47 45 44 41 40 40 39 37 36 34 33 31 30 28 26 25 24 22 20 18 17 15 14 12 10 8 6 5 5 5 6 6 7 8 9 11
Wind_Direction
301 309 314 312 315 317 317 319 316 314 313 319 327 328 329 331 332 331 331 330 330 329 328 326 324 323 322 321 319 318 316 314 313 310 308 305 303 300 297 293 288 282 278 273
302 304 317 316 314 317 319 320 320 319 319 324 328 328 329 332 333 333 332 332 332 331 330 328 326 325 324 323 322 320 319 317 316 314 312 310 307 304 300 296 292 286 279 274
319 321 325 310 311 314 318 319 320 320 323 326 329 329 331 334 335 335 335 335 334 333 331 330 328 327 326 325 324 323 322 321 319 317 316 315 312 308 304 300 295 289 282 275
312 317 312 305 311 314 316 317 320 322 324 328 332 332 333 336 338 338 337 336 335 334 332 331 330 329 329 328 327 326 325 324 323 322 321 319 315 311 307 303 299 294 287 279
308 304 306 303 310 315 316 316 322 324 327 330 333 333 334 337 338 338 337 336 335 334 333 332 331 331 330 330 329 329 328 327 326 325 324 322 319 315 312 307 303 299 293 284
315 310 299 295 309 317 318 319 328 327 330 331 332 334 335 336 337 338 337 336 335 335 333 333 333 333 332 332 332 331 331 330 330 330 328 326 324 321 318 314 309 305 299 289
313 312 295 300 308 313 316 320 323 325 328 330 333 335 337 338 338 338 338 337 337 336 335 334 334 334 334 333 334 334 334 334 334 334 333 331 329 327 323 320 314 310 306 296
300 296 291 305 306 311 314 316 319 322 326 331 333 336 338 339 339 340 339 338 338 337 336 335 335 336 336 336 336 336 336 336 336 337 336 335 334 332 329 325 321 316 311 302
293 295 299 302 306 310 312 315 318 322 327 331 334 337 338 339 340 341 341 340 339 339 338 337 337 337 338 338 338 339 339 339 339 339 339 339 338 337 335 333 329 325 318 310
295 297 301 304 307 310 313 316 320 324 328 332 335 337 339 340 341 341 342 341 341 340 340 339 339 339 340 340 340 342 343 343 343 343 343 344 344 342 340 339 338 334 325 318
298 300 304 307 310 312 314 317 321 325 328 332 335 337 339 341 342 342 343 343 343 342 342 341 341 342 342 342 343 345 346 347 347 348 347 348 348 348 346 345 343 342 334 324
299 303 305 308 311 312 314 317 321 325 328 331 335 337 339 340 342 343 343 344 344 344 344 344 344 344 345 346 347 348 351 352 352 352 352 352 353 353 353 351 349 347 344 333
298 301 303 306 309 311 314 317 320 324 327 330 334 336 338 340 342 343 344 345 346 346 346 346 347 347 349 350 351 353 355 357 357 357 357 358 359 358 358 358 357 355 351 345
297 299 301 304 307 309 312 316 319 323 326 330 333 336 338 340 342 343 344 345 346 347 347 348 349 350 351 353 355 356 358 360 1 2 3 3 4 4 3 3 3 4 4 360
298 299 300 302 305 308 312 315 318 321 325 329 332 335 337 339 341 342 343 345 346 346 348 349 349 351 352 354 356 358 359 2 4 5 6 7 8 9 9 8 8 8 10 13
297 298 300 303 305 308 311 314 317 321 324 328 331 333 336 338 340 342 342 344 345 346 347 348 349 350 352 354 356 358 0 3 6 8 8 9 12 14 15 15 15 15 17 23
295 297 300 302 304 307 310 313 316 319 323 325 328 331 333 336 339 341 342 343 344 345 347 348 349 350 351 353 356 359 1 4 7 9 11 13 15 17 20 21 23 25 26 30
294 296 298 300 302 305 308 310 314 317 320 323 326 329 331 333 336 339 341 342 343 344 346 347 349 350 351 353 355 359 2 5 8 11 14 16 18 20 22 23 26 27 29 32
292 294 296 297 300 302 305 308 311 314 317 320 323 325 328 330 333 336 339 340 341 342 344 346 348 350 351 352 354 358 1 5 9 12 15 18 21 22 25 27 28 31 32 32
290 292 293 295 297 299 302 305 307 311 313 317 320 322 324 327 331 334 336 338 339 340 342 344 346 348 350 351 354 357 0 5 9 12 14 18 21 24 26 28 31 34 35 38
288 290 291 293 294 296 299 302 304 307 310 313 316 318 321 324 327 330 333 335 336 337 339 341 344 346 348 350 352 355 358 2 7 11 14 17 20 23 26 30 33 36 39 42
286 287 289 290 292 294 296 298 300 303 305 308 312 314 316 319 322 325 329 331 333 334 336 338 341 344 346 348 351 354 356 359 4 9 13 17 19 22 27 32 35 39 44 48
283 285 286 287 289 291 292 294 295 298 301 304 307 310 313 316 319 322 325 328 329 331 332 335 337 340 342 345 347 350 354 357 360 4 10 14 18 24 30 35 38 40 45 50
281 282 283 285 286 288 289 291 293 294 297 299 302 305 308 311 313 316 319 322 324 326 328 330 333 335 337 340 342 344 347 351 355 358 5 13 19 26 32 36 39 42 46 51
279 280 281 282 284 285 287 288 289 291 293 295 297 300 302 304 307 312 315 317 319 321 323 325 328 329 330 333 336 338 340 342 346 352 360 9 16 23 29 33 38 43 47 50
277 278 279 280 281 282 283 285 287 289 290 292 294 296 298 300 302 306 310 311 314 316 317 319 322 323 324 326 328 330 333 335 338 342 348 356 6 17 24 32 38 43 48 53
276 277 278 278 279 280 281 282 284 286 287 288 289 292 295 297 299 301 305 307 309 311 312 314 316 317 317 319 321 322 323 324 327 330 329 336 352 7 19 30 38 42 46 52
Height
5849 5849 5848 5847 5844 5842 5840 5837 5835 5832 5828 5822 5818 5813 5807 5801 5794 5787 5779 5772 5764 5756 5748 5741 5734 5726 5719 5711 5703 5694 5686 5678 5671 5663 5655 5647 5639 5632 5626 5620 5616 5613 5612 5611
5847 5846 5846 5844 5842 5840 5837 5835 5832 5829 5825 5819 5814 5808 5803 5797 5789 5782 5774 5766 5757 5749 5741 5734 5726 5718 5710 5701 5693 5684 5676 5667 5658 5649 5640 5632 5623 5616 5609 5603 5599 5595 5593 5592
5845 5845 5844 5842 5840 5838 5835 5832 5829 5825 5821 5816 5810 5804 5797 5791 5784 5776 5767 5759 5751 5742 5734 5726 5718 5709 5701 5692 5683 5674 5665 5656 5646 5637 5627 5618 5609 5602 5595 5589 5584 5580 5578 5576
5844 5844 5842 5841 5838 5835 5832 5829 5825 5821 5817 5812 5806 5798 5791 5785 5777 5769 5761 5753 5745 5736 5728 5719 5710 5701 5692 5683 5674 5665 5655 5645 5635 5625 5615 5606 5598 5590 5583 5577 5572 5568 5565 5563
5842 5842 5841 5836 5834 5832 5829 5825 5822 5818 5813 5808 5802 5796 5787 5780 5772 5764 5755 5747 5738 5730 5721 5712 5703 5694 5684 5675 5665 5656 5646 5636 5625 5615 5605 5596 5588 5580 5573 5567 5562 5557 5554 5552
5840 5839 5838 5834 5831 5828 5826 5821 5818 5813 5808 5803 5798 5792 5785 5777 5768 5759 5750 5741 5732 5723 5714 5705 5696 5686 5677 5667 5658 5648 5638 5627 5616 5606 5597 5587 5579 5571 5564 5558 5553 5549 5546 5543
5838 5837 5835 5830 5828 5826 5823 5819 5814 5809 5805 5799 5793 5787 5780 5771 5763 5754 5745 5735 5726 5717 5707 5698 5689 5680 5670 5661 5651 5640 5630 5619 5609 5599 5590 5581 5572 5565 5558 5552 5546 5542 5539 5536
5835 5833 5832 5827 5824 5822 5819 5814 5810 5806 5801 5795 5789 5782 5774 5766 5758 5749 5740 5730 5721 5711 5702 5692 5683 5674 5664 5654 5644 5634 5623 5613 5603 5594 5584 5575 5567 5560 5553 5547 5541 5537 5533 5530
5832 5831 5827 5823 5820 5817 5814 5810 5806 5801 5796 5790 5784 5777 5770 5762 5753 5744 5735 5725 5715 5706 5696 5686 5677 5668 5658 5648 5638 5628 5618 5608 5598 5589 5579 5571 5563 5556 5550 5543 5538 5533 5529 5527
5827 5824 5821 5819 5815 5812 5809 5805 5801 5797 5791 5786 5779 5772 5765 5757 5748 5739 5730 5720 5710 5701 5691 5681 5672 5662 5652 5643 5633 5623 5613 5603 5594 5585 5576 5568 5560 5553 5547 5541 5535 5531 5527 5524
5822 5820 5817 5814 5811 5808 5804 5801 5796 5792 5787 5781 5775 5768 5760 5752 5744 5734 5725 5715 5706 5696 5686 5677 5667 5657 5648 5638 5629 5619 5610 5600 5591 5583 5574 5566 5559 5552 5545 5539 5534 5529 5525 5522
5818 5815 5813 5810 5807 5803 5800 5796 5792 5787 5782 5776 5770 5763 5755 5747 5739 5730 5721 5711 5701 5692 5682 5672 5663 5653 5644 5634 5625 5616 5607 5598 5590 5581 5573 5565 5558 5551 5545 5539 5533 5529 5524 5521
5813 5811 5808 5805 5802 5799 5795 5791 5787 5782 5777 5772 5765 5758 5751 5743 5734 5726 5716 5707 5698 5688 5679 5669 5660 5651 5641 5632 5624 5615 5606 5598 5589 5581 5573 5565 5558 5552 5545 5540 5534 5528 5524 5521
5808 5806 5803 5800 5797 5794 5790 5786 5782 5777 5772 5767 5760 5753 5746 5738 5730 5721 5713 5704 5695 5685 5676 5667 5658 5649 5641 5632 5623 5615 5607 5598 5590 5582 5575 5567 5560 5553 5547 5541 5535 5530 5525 5522
5803 5801 5798 5795 5792 5789 5785 5781 5777 5772 5767 5761 5755 5748 5741 5734 5726 5718 5709 5701 5692 5683 5675 5666 5657 5649 5640 5632 5624 5616 5608 5600 5592 5584 5577 5570 5563 5556 5549 5543 5537 5532 5527 5524
5797 5795 5792 5789 5786 5783 5780 5775 5771 5766 5761 5756 5750 5743 5736 5729 5721 5714 5705 5697 5689 5681 5673 5665 5657 5648 5640 5632 5624 5617 5609 5602 5594 5587 5580 5573 5566 5559 5553 5547 5541 5536 5530 5527
5791 5789 5786 5783 5780 5777 5773 5769 5765 5760 5755 5750 5744 5738 5732 5725 5718 5710 5702 5694 5686 5679 5671 5663 5656 5648 5640 5633 5625 5618 5610 5603 5596 5590 5583 5577 5570 5564 5558 5552 5546 5541 5535 5531
5784 5782 5779 5777 5774 5770 5767 5763 5759 5754 5750 5744 5739 5733 5726 5720 5714 5706 5699 5692 5684 5677 5669 5662 5654 5647 5640 5633 5626 5619 5612 5606 5599 5593 5587 5581 5575 5569 5563 5557 5552 5546 5541 5537
5777 5774 5772 5769 5766 5763 5760 5756 5752 5748 5743 5738 5733 5727 5721 5715 5709 5702 5696 5689 5682 5675 5668 5660 5653 5647 5640 5633 5626 5620 5614 5608 5602 5596 5591 5585 5579 5574 5568 5563 5558 5552 5547 5542
5768 5766 5764 5761 5758 5755 5752 5749 5745 5740 5736 5732 5727 5721 5716 5710 5704 5698 5692 5685 5679 5672 5666 5659 5653 5646 5640 5633 5627 5622 5616 5610 5605 5600 5594 5589 5584 5579 5574 5569 5564 5559 5554 5549
5759 5757 5755 5752 5750 5747 5744 5740 5737 5733 5728 5724 5720 5715 5710 5705 5699 5694 5688 5682 5676 5669 5663 5658 5652 5646 5640 5634 5628 5623 5618 5613 5608 5603 5598 5594 5589 5585 5580 5575 5570 5566 5561 5556
5749 5747 5745 5742 5740 5737 5734 5731 5728 5724 5720 5716 5712 5708 5703 5698 5694 5688 5683 5678 5672 5666 5661 5655 5650 5644 5639 5634 5628 5624 5619 5615 5610 5606 5602 5598 5593 5589 5585 5581 5577 5572 5568 5564
5738 5736 5734 5731 5729 5726 5724 5722 5719 5715 5712 5708 5704 5700 5696 5692 5687 5683 5678 5673 5668 5663 5658 5653 5648 5643 5638 5633 5628 5624 5620 5616 5612 5609 5605 5601 5597 5593 5590 5586 5582 5579 5575 5572
5725 5723 5721 5719 5717 5715 5713 5710 5708 5706 5703 5699 5696 5692 5689 5685 5681 5677 5672 5668 5663 5659 5654 5650 5645 5641 5636 5632 5628 5624 5620 5617 5613 5610 5607 5604 5601 5597 5594 5591 5587 5584 5581 5578
5711 5709 5708 5706 5705 5703 5701 5699 5696 5694 5692 5689 5686 5683 5680 5677 5673 5670 5666 5662 5658 5654 5650 5646 5642 5638 5634 5630 5627 5623 5620 5617 5614 5611 5608 5606 5603 5601 5598 5595 5592 5589 5587 5584
5696 5695 5693 5692 5691 5689 5687 5685 5683 5682 5680 5679 5676 5674 5671 5668 5665 5662 5659 5655 5652 5648 5645 5641 5638 5634 5631 5628 5625 5622 5619 5616 5614 5611 5609 5607 5605 5603 5601 5598 5596 5594 5592 5590
5679 5678 5677 5676 5676 5675 5673 5672 5671 5669 5668 5667 5665 5663 5661 5659 5656 5653 5651 5648 5645 5642 5639 5636 5633 5630 5627 5625 5622 5619 5617 5615 5613 5611 5609 5607 5606 5604 5603 5601 5599 5598 5596 5594